RH
41 44 51 57 58 60 67 68 71 73 73 74 70 67 63 64 65 67 65 58 48 47 47 48 49 51 53 53 50 45 39 36
44 45 48 55 58 62 64 64 66 68 73 74 68 64 60 60 59 55 47 46 50 52 54 54 56 59 57 52 45 41 39 38
46 47 49 53 54 60 61 67 68 74 78 71 62 58 55 52 46 46 51 53 57 58 58 60 61 60 54 44 40 39 39 39
48 49 51 56 59 60 62 71 73 73 75 61 55 51 50 47 50 52 56 58 60 59 62 63 60 55 46 42 39 41 44 42
48 50 52 56 57 60 68 70 70 66 68 58 54 50 49 55 58 58 61 62 61 62 64 57 54 52 47 41 42 46 45 43
47 49 53 54 57 67 67 62 64 73 62 54 54 59 59 62 64 66 69 63 63 62 57 58 56 52 46 43 47 52 52 49
51 54 53 52 55 57 61 73 67 62 55 57 58 57 60 62 63 62 67 67 71 63 60 57 52 46 40 44 49 49 51 48
48 50 53 58 58 60 62 62 59 58 56 54 55 58 61 62 59 63 67 78 74 55 54 50 42 39 41 46 47 49 52 51
50 51 55 55 53 57 58 57 57 56 55 53 55 56 59 59 59 64 80 74 58 50 48 44 43 42 45 46 47 48 52 49
48 47 46 48 51 54 56 54 55 54 54 54 55 59 59 59 66 74 76 65 59 46 44 43 43 47 45 44 47 47 49 51
42 41 42 44 48 49 52 54 57 56 55 56 58 61 64 65 68 72 70 63 53 44 44 46 50 49 51 50 50 45 46 47
37 38 41 44 48 50 52 57 62 59 56 57 60 64 67 72 66 67 70 70 57 45 48 52 53 56 54 51 48 47 47 48
37 38 41 43 48 51 53 59 61 60 61 59 64 71 74 76 64 75 74 62 48 49 53 57 58 59 54 53 45 45 45 45
39 43 43 45 47 51 55 58 59 60 60 63 68 73 74 86 70 78 70 53 55 59 59 59 60 62 58 55 49 47 47 46
41 48 52 52 50 53 57 59 57 59 60 68 70 71 84 77 76 72 54 61 68 62 62 64 64 61 55 52 51 55 50 47
45 50 55 58 54 57 59 57 55 56 62 69 74 75 83 74 71 65 63 74 69 68 68 63 67 58 54 54 54 46 42 40
45 43 46 52 57 57 56 57 56 59 70 74 79 79 73 80 75 60 74 79 78 66 63 62 64 59 51 52 48 46 38 35
40 44 45 49 56 58 59 60 61 63 71 79 76 76 85 78 67 77 80 73 69 66 64 63 63 62 51 51 47 46 36 39
35 40 45 49 57 62 63 63 66 73 77 78 81 87 84 74 79 80 76 73 69 66 62 56 63 62 50 50 52 53 42 44